EW7213 Weather Reports


time (UTC)temp
C
wind
direction
speed
KPH
gust
KPH
rain 1hr
cm
rain 24hr
cm
rain mn
cm
humidity
%
barometer
mb
20260509022350 13 248 0.0 0.0 0.00 0.00 0.00 69 1010.5
20260509021850 13 248 0.0 0.0 0.00 0.00 0.00 69 1010.5
20260509021348 13 248 0.0 0.0 0.00 0.00 0.00 69 1010.5
20260509020848 13 248 0.0 0.0 0.00 0.00 0.00 67 1010.5
20260509020347 13 248 0.0 0.0 0.00 0.00 0.00 65 1010.5
20260509015852 14 248 0.0 0.0 0.00 0.00 0.00 63 1010.4
20260509015848 14 248 0.0 0.0 0.00 0.00 0.00 64 1010.4
20260509014847 14 248 0.0 0.0 0.00 0.00 0.00 62 1010.4
20260509014352 15 248 0.0 0.0 0.00 0.00 0.00 62 1010.2
20260509014348 14 248 0.0 0.0 0.00 0.00 0.00 63 1010.3
20260509013353 15 248 0.0 0.0 0.00 0.00 0.00 62 1010.2
20260509013349 15 248 0.0 0.0 0.00 0.00 0.00 62 1010.2
20260509012346 15 248 0.0 0.0 0.00 0.00 0.00 60 1010.2
20260509011845 15 248 0.0 0.0 0.00 0.00 0.00 59 1010.2
20260509011346 16 248 0.0 0.0 0.00 0.00 0.00 58 1010.2
20260509010845 16 248 0.0 0.0 0.00 0.00 0.00 58 1010.2
20260509010347 16 248 0.0 0.0 0.00 0.00 0.00 57 1010.2
20260509005845 17 248 0.0 0.0 0.00 0.00 0.00 52 1010.2
20260509005345 17 248 0.0 0.0 0.00 0.00 0.00 51 1010.2
20260509004845 17 248 0.0 0.0 0.00 0.00 0.00 49 1010.2
20260509004346 18 248 0.0 0.0 0.00 0.00 0.00 49 1010.2
20260509003845 18 248 0.0 0.0 0.00 0.00 0.00 48 1010.3
20260509003344 18 248 0.0 0.0 0.00 0.00 0.00 47 1010.2
20260509002843 18 248 0.0 0.0 0.00 0.00 0.00 45 1010.3
20260509002343 19 248 0.0 0.0 0.00 0.00 0.00 43 1010.3
20260509001843 20 248 0.0 0.0 0.00 0.00 0.00 41 1010.3
20260509001344 20 248 0.0 0.0 0.00 0.00 0.00 39 1010.5
20260509000843 21 248 0.0 0.0 0.00 0.00 0.00 37 1010.5
20260509000344 21 248 0.0 0.0 0.00 0.00 0.00 37 1010.6
20260508235843 21 248 0.0 0.0 0.00 0.00 0.00 36 1010.6
20260508235346 21 249 0.0 0.0 0.00 0.00 0.00 35 1010.6
20260508235341 21 248 0.0 0.0 0.00 0.00 0.00 35 1010.5
20260508234946 21 244 0.0 0.0 0.00 0.00 0.00 34 1010.6
20260508233839 21 213 0.0 0.0 0.00 0.00 0.00 33 1010.6
20260508233339 21 255 0.0 0.0 0.00 0.00 0.00 34 1010.6
20260508232840 21 209 0.0 0.0 0.00 0.00 0.00 33 1010.6
20260508232337 21 240 0.0 0.0 0.00 0.00 0.00 34 1010.7
20260508231838 21 222 0.0 0.0 0.00 0.00 0.00 34 1010.7
20260508231337 21 196 0.0 0.0 0.00 0.00 0.00 33 1010.8
20260508230837 21 220 0.0 0.0 0.00 0.00 0.00 33 1010.8
20260508230340 21 237 0.0 0.0 0.00 0.00 0.00 32 1010.9
20260508230336 21 212 0.0 0.0 0.00 0.00 0.00 32 1010.9
20260508225335 21 268 0.0 0.0 0.00 0.00 0.00 31 1011.0
20260508224833 21 248 0.0 0.0 0.00 0.00 0.00 32 1010.9
20260508224333 21 237 0.0 0.0 0.00 0.00 0.00 31 1010.9
20260508223832 21 246 0.0 0.0 0.00 0.00 0.00 31 1010.9
20260508223333 21 197 0.0 0.0 0.00 0.00 0.00 31 1010.9
20260508222833 22 200 0.0 0.0 0.00 0.00 0.00 30 1010.9
20260508222332 21 221 0.0 0.0 0.00 0.00 0.00 30 1010.8
20260508221833 21 235 0.0 0.0 0.00 0.00 0.00 29 1010.8
20260508221333 21 213 0.0 0.0 0.00 0.00 0.00 29 1010.8
20260508220833 22 217 0.0 0.0 0.00 0.00 0.00 29 1010.8
20260508220333 21 212 0.0 0.0 0.00 0.00 0.00 31 1010.8
20260508215832 21 255 0.0 0.0 0.00 0.00 0.00 29 1010.8
20260508215333 22 207 0.0 0.0 0.00 0.00 0.00 31 1010.7
20260508214832 21 161 0.0 0.0 0.00 0.00 0.00 32 1010.6
20260508214333 21 165 0.0 0.0 0.00 0.00 0.00 32 1010.6
20260508213832 21 177 0.0 0.0 0.00 0.00 0.00 32 1010.7
20260508213332 21 163 0.0 0.0 0.00 0.00 0.00 31 1010.7
20260508212833 21 257 0.0 0.0 0.00 0.00 0.00 31 1010.8
20260508212337 21 191 0.0 0.0 0.00 0.00 0.00 30 1010.9
20260508212333 21 202 0.0 0.0 0.00 0.00 0.00 31 1010.9
20260508211939 21 178 0.0 0.0 0.00 0.00 0.00 30 1010.9
20260508210832 21 257 0.0 0.0 0.00 0.00 0.00 31 1011.1
20260508210333 21 219 0.0 0.0 0.00 0.00 0.00 31 1011.2
20260508205832 21 194 0.0 0.0 0.00 0.00 0.00 31 1011.2
20260508205333 21 235 0.0 0.0 0.00 0.00 0.00 30 1011.3
20260508204832 21 192 0.0 0.0 0.00 0.00 0.00 30 1011.3
20260508204334 21 217 0.0 0.0 0.00 0.00 0.00 29 1011.4
20260508203833 21 227 0.0 0.0 0.00 0.00 0.00 30 1011.5
20260508203332 21 176 0.0 0.0 0.00 0.00 0.00 30 1011.6
20260508202833 21 187 0.0 0.0 0.00 0.00 0.00 30 1011.5
20260508202333 21 224 0.0 0.0 0.00 0.00 0.00 31 1011.5
20260508201833 21 225 0.0 0.0 0.00 0.00 0.00 32 1011.6
20260508201332 21 193 0.0 0.0 0.00 0.00 0.00 31 1011.7
20260508200832 21 244 0.0 0.0 0.00 0.00 0.00 30 1011.8
20260508200338 21 209 0.0 0.0 0.00 0.00 0.00 30 1011.8
20260508200332 21 261 0.0 0.0 0.00 0.00 0.00 30 1011.7
20260508195834 21 226 0.0 0.0 0.00 0.00 0.00 30 1011.8
20260508194832 21 219 0.0 0.0 0.00 0.00 0.00 32 1011.8
20260508194333 21 260 0.0 0.0 0.00 0.00 0.00 30 1011.9
20260508193836 21 164 0.0 0.0 0.00 0.00 0.00 32 1012.0
20260508193832 21 166 0.0 0.0 0.00 0.00 0.00 33 1012.1
20260508192830 21 173 0.0 0.0 0.00 0.00 0.00 34 1012.2
20260508192336 20 248 0.0 0.0 0.00 0.00 0.00 33 1012.5
20260508192331 20 183 0.0 0.0 0.00 0.00 0.00 32 1012.4
20260508191332 20 210 0.0 0.0 0.00 0.00 0.00 33 1012.6
20260508190831 20 161 0.0 0.0 0.00 0.00 0.00 34 1012.6
20260508190336 20 174 0.0 0.0 0.00 0.00 0.00 34 1012.8
20260508190331 20 234 0.0 0.0 0.00 0.00 0.00 36 1012.7
20260508185332 20 177 0.0 0.0 0.00 0.00 0.00 33 1012.7
20260508184832 20 266 0.0 0.0 0.00 0.00 0.00 33 1012.9
20260508184828 20 202 0.0 0.0 0.00 0.00 0.00 34 1012.8
20260508183830 20 148 0.0 0.0 0.00 0.00 0.00 38 1013.1
20260508183826 20 204 0.0 0.0 0.00 0.00 0.00 34 1013.0
20260508182826 20 210 0.0 0.0 0.00 0.00 0.00 35 1013.2
20260508182326 20 183 0.0 0.0 0.00 0.00 0.00 35 1013.3
20260508181824 20 221 0.0 0.0 0.00 0.00 0.00 35 1013.3
20260508181328 20 129 0.0 0.0 0.00 0.00 0.00 36 1013.5
20260508181324 20 208 0.0 0.0 0.00 0.00 0.00 36 1013.5
20260508180323 20 141 0.0 0.0 0.00 0.00 0.00 34 1013.7
20260508175822 20 219 0.0 0.0 0.00 0.00 0.00 35 1013.8
20260508175322 20 175 0.0 0.0 0.00 0.00 0.00 37 1013.9
20260508174822 20 252 0.0 0.0 0.00 0.00 0.00 38 1013.9
20260508174322 19 185 0.0 0.0 0.00 0.00 0.00 36 1014.1
20260508173822 20 189 0.0 0.0 0.00 0.00 0.00 36 1014.2
20260508173322 20 178 0.0 0.0 0.00 0.00 0.00 36 1014.2
20260508172822 20 249 0.0 0.0 0.00 0.00 0.00 37 1014.4
20260508172323 19 125 0.0 0.0 0.00 0.00 0.00 34 1014.6
20260508171822 19 101 0.0 0.0 0.00 0.00 0.00 35 1014.8
20260508171323 19 185 0.0 0.0 0.00 0.00 0.00 40 1014.7
20260508170822 19 165 0.0 0.0 0.00 0.00 0.00 40 1014.8
20260508170321 19 192 0.0 0.0 0.00 0.00 0.00 42 1014.9
20260508165821 18 209 0.0 0.0 0.00 0.00 0.00 41 1015.0
20260508165319 18 180 0.0 0.0 0.00 0.00 0.00 38 1015.0
20260508164825 18 191 0.0 0.0 0.00 0.00 0.00 43 1015.2
20260508164821 18 275 0.0 0.0 0.00 0.00 0.00 41 1015.2
20260508163824 18 174 0.0 0.0 0.00 0.00 0.00 42 1015.4
20260508163820 18 182 0.0 0.0 0.00 0.00 0.00 40 1015.3
20260508162820 18 194 0.0 0.0 0.00 0.00 0.00 43 1015.5
20260508162320 18 169 0.0 0.0 0.00 0.00 0.00 42 1015.5
20260508161818 18 247 0.0 0.0 0.00 0.00 0.00 43 1015.6
20260508161317 18 145 0.0 0.0 0.00 0.00 0.00 43 1015.7
20260508160822 17 173 0.0 0.0 0.00 0.00 0.00 42 1015.9
20260508160818 18 137 0.0 0.0 0.00 0.00 0.00 44 1015.8
20260508155818 17 163 0.0 0.0 0.00 0.00 0.00 42 1015.9
20260508155319 17 178 0.0 0.0 0.00 0.00 0.00 43 1016.0
20260508154817 17 150 0.0 0.0 0.00 0.00 0.00 43 1016.0
20260508154320 17 182 0.0 0.0 0.00 0.00 0.00 44 1016.0
20260508153822 17 165 0.0 0.0 0.00 0.00 0.00 45 1016.2
20260508153818 17 204 0.0 0.0 0.00 0.00 0.00 43 1016.0
20260508152818 16 233 0.0 0.0 0.00 0.00 0.00 45 1016.3
20260508152319 16 254 0.0 0.0 0.00 0.00 0.00 47 1016.3
20260508151817 16 205 0.0 0.0 0.00 0.00 0.00 47 1016.5
20260508151318 16 230 0.0 0.0 0.00 0.00 0.00 48 1016.5
20260508150818 16 219 0.0 0.0 0.00 0.00 0.00 48 1016.6
20260508150318 16 202 0.0 0.0 0.00 0.00 0.00 50 1016.6
20260508145818 15 244 0.0 0.0 0.00 0.00 0.00 50 1016.6
20260508145323 15 212 0.0 0.0 0.00 0.00 0.00 50 1016.7
20260508145319 15 249 0.0 0.0 0.00 0.00 0.00 49 1016.6
20260508144317 15 240 0.0 0.0 0.00 0.00 0.00 52 1016.7
20260508143815 15 219 0.0 0.0 0.00 0.00 0.00 54 1016.7
20260508143316 15 231 0.0 0.0 0.00 0.00 0.00 57 1016.7
20260508142816 14 185 0.0 0.0 0.00 0.00 0.00 60 1016.8
20260508142315 13 202 0.0 0.0 0.00 0.00 0.00 64 1016.8
20260508141816 13 169 0.0 0.0 0.00 0.00 0.00 69 1016.9
20260508141315 12 257 0.0 0.0 0.00 0.00 0.00 74 1016.9
20260508140816 12 230 0.0 0.0 0.00 0.00 0.00 75 1016.9
20260508140315 12 240 0.0 0.0 0.00 0.00 0.00 79 1016.9
20260508135817 11 240 0.0 0.0 0.00 0.00 0.00 81 1017.0
20260508135316 11 248 0.0 0.0 0.00 0.00 0.00 83 1016.9
20260508134816 10 254 0.0 0.0 0.00 0.00 0.00 83 1017.0
20260508134316 10 243 0.0 0.0 0.00 0.00 0.00 84 1017.1
20260508133815 10 240 0.0 0.0 0.00 0.00 0.00 86 1017.1
20260508133317 9 219 0.0 0.0 0.00 0.00 0.00 87 1017.0
20260508132817 8 247 0.0 0.0 0.00 0.00 0.00 89 1017.0
20260508132316 8 247 0.0 0.0 0.00 0.00 0.00 89 1017.0
20260508131820 7 246 0.0 0.0 0.00 0.00 0.00 89 1016.9
20260508131816 7 246 0.0 0.0 0.00 0.00 0.00 89 1017.0
20260508131422 7 261 0.0 0.0 0.00 0.00 0.00 89 1016.8
20260508130315 6 260 0.0 0.0 0.00 0.00 0.00 89 1016.8
20260508125820 6 260 0.0 0.0 0.00 0.00 0.00 90 1016.8
20260508125815 6 260 0.0 0.0 0.00 0.00 0.00 89 1016.8
20260508124815 6 233 0.0 0.0 0.00 0.00 0.00 91 1016.8
20260508124315 6 229 0.0 0.0 0.00 0.00 0.00 92 1016.8
20260508123821 5 229 0.0 0.0 0.00 0.00 0.00 92 1016.8
20260508123816 5 229 0.0 0.0 0.00 0.00 0.00 92 1016.8
20260508122815 5 229 0.0 0.0 0.00 0.00 0.00 92 1016.8
20260508122317 5 229 0.0 0.0 0.00 0.00 0.00 92 1016.8
20260508121815 4 229 0.0 0.0 0.00 0.00 0.00 92 1016.7
20260508121319 4 229 0.0 0.0 0.00 0.00 0.00 93 1016.7
20260508121315 4 229 0.0 0.0 0.00 0.00 0.00 93 1016.8
20260508120314 3 229 0.0 0.0 0.00 0.00 0.00 93 1016.7
20260508115814 3 229 0.0 0.0 0.00 0.00 0.00 92 1016.6
20260508115317 3 228 0.0 0.0 0.00 0.00 0.00 92 1016.6
20260508115311 3 229 0.0 0.0 0.00 0.00 0.00 92 1016.6
20260508114811 3 228 0.0 0.0 0.00 0.00 0.00 93 1016.6
20260508113811 3 229 0.0 0.0 0.00 0.00 0.00 92 1016.6
20260508113312 3 229 0.0 0.0 0.00 0.00 0.00 92 1016.6
20260508112815 2 229 0.0 0.0 0.00 0.00 0.00 92 1016.3
20260508112811 2 229 0.0 0.0 0.00 0.00 0.00 92 1016.5
20260508111811 3 229 0.0 0.0 0.00 0.00 0.00 93 1016.1
20260508111311 2 229 0.0 0.0 0.00 0.00 0.00 92 1016.1
20260508110811 2 229 0.0 0.0 0.00 0.00 0.00 92 1016.0
20260508110309 2 229 0.0 0.0 0.00 0.00 0.00 92 1015.9
20260508105810 2 229 0.0 0.0 0.00 0.00 0.00 92 1015.9
20260508105309 2 229 0.0 0.0 0.00 0.00 0.00 92 1015.9
20260508104809 2 231 0.0 0.0 0.00 0.00 0.00 92 1015.8
20260508104310 2 231 0.0 0.0 0.00 0.00 0.00 92 1015.7
20260508103813 2 231 0.0 0.0 0.00 0.00 0.00 92 1015.8
20260508103809 2 231 0.0 0.0 0.00 0.00 0.00 92 1015.7
20260508102809 2 231 0.0 0.0 0.00 0.00 0.00 92 1015.8
20260508102309 2 231 0.0 0.0 0.00 0.00 0.00 92 1015.7
20260508101808 2 231 0.0 0.0 0.00 0.00 0.00 92 1015.7
20260508101307 2 231 0.0 0.0 0.00 0.00 0.00 92 1015.6
20260508100807 2 231 0.0 0.0 0.00 0.00 0.00 92 1015.7
20260508100307 3 231 0.0 0.0 0.00 0.00 0.00 92 1015.6
20260508095807 3 231 0.0 0.0 0.00 0.00 0.00 92 1015.6
20260508095308 3 231 0.0 0.0 0.00 0.00 0.00 92 1015.6
20260508094813 3 231 0.0 0.0 0.00 0.00 0.00 92 1015.7
20260508094807 3 231 0.0 0.0 0.00 0.00 0.00 92 1015.7
20260508094307 3 231 0.0 0.0 0.00 0.00 0.00 92 1015.7
20260508093306 3 231 0.0 0.0 0.00 0.00 0.00 92 1015.7
20260508092808 3 231 0.0 0.0 0.00 0.00 0.00 92 1015.7
20260508092313 3 231 0.0 0.0 0.00 0.00 0.00 92 1015.7
20260508091805 3 231 0.0 0.0 0.00 0.00 0.00 92 1015.7
20260508091305 3 231 0.0 0.0 0.00 0.00 0.00 92 1015.8
20260508090810 3 231 0.0 0.0 0.00 0.00 0.00 91 1015.8
20260508090806 3 231 0.0 0.0 0.00 0.00 0.00 91 1015.8
20260508090412 3 231 0.0 0.0 0.00 0.00 0.00 91 1015.8
20260508085307 3 231 0.0 0.0 0.00 0.00 0.00 92 1015.8
20260508084805 3 231 0.0 0.0 0.00 0.00 0.00 92 1015.8
20260508084309 3 231 0.0 0.0 0.00 0.00 0.00 91 1015.8
20260508084305 3 231 0.0 0.0 0.00 0.00 0.00 91 1015.8
20260508083304 3 231 0.0 0.0 0.00 0.00 0.00 91 1015.7
20260508082803 3 231 0.0 0.0 0.00 0.00 0.00 91 1015.7
20260508082306 3 231 0.0 0.0 0.00 0.00 0.00 91 1015.7
20260508081805 3 231 0.0 0.0 0.00 0.00 0.00 91 1015.7
20260508081801 3 231 0.0 0.0 0.00 0.00 0.00 91 1015.7
20260508080800 3 231 0.0 0.0 0.00 0.00 0.00 91 1015.7
20260508080304 3 231 0.0 0.0 0.00 0.00 0.00 91 1015.7
20260508080300 4 231 0.0 0.0 0.00 0.00 0.00 91 1015.7
20260508075906 4 231 0.0 0.0 0.00 0.00 0.00 91 1015.6
20260508075301 4 231 0.0 0.0 0.00 0.00 0.00 91 1015.6
20260508074258 4 231 0.0 0.0 0.00 0.00 0.00 91 1015.5
20260508073758 4 231 0.0 0.0 0.00 0.00 0.00 91 1015.5
20260508073258 4 231 0.0 0.0 0.00 0.00 0.00 91 1015.5
20260508072758 4 231 0.0 0.0 0.00 0.00 0.00 91 1015.6
20260508072258 4 231 0.0 0.0 0.00 0.00 0.00 91 1015.7
20260508071758 4 231 0.0 0.0 0.00 0.00 0.00 91 1015.7
20260508071256 4 231 0.0 0.0 0.00 0.00 0.00 91 1015.8
20260508070757 4 231 0.0 0.0 0.00 0.00 0.00 91 1015.7
20260508070256 4 231 0.0 0.0 0.00 0.00 0.00 91 1015.8
20260508065756 4 231 0.0 0.0 0.00 0.00 0.00 90 1015.9
20260508065256 5 231 0.0 0.0 0.00 0.00 0.00 90 1015.9
20260508064800 5 231 0.0 0.0 0.00 0.00 0.00 90 1016.0
20260508064756 5 231 0.0 0.0 0.00 0.00 0.00 90 1016.0
20260508064402 5 231 0.0 0.0 0.00 0.00 0.00 90 1015.9
20260508063256 5 231 0.0 0.0 0.00 0.00 0.00 90 1015.9
20260508062755 5 231 0.0 0.0 0.00 0.00 0.00 90 1015.8
20260508062254 5 231 0.0 0.0 0.00 0.00 0.00 90 1015.9
20260508061753 5 231 0.0 0.0 0.00 0.00 0.00 90 1015.8
20260508061254 5 231 0.0 0.0 0.00 0.00 0.00 90 1015.8
20260508060754 5 231 0.0 0.0 0.00 0.00 0.00 90 1015.9
20260508060254 5 231 0.0 0.0 0.00 0.00 0.00 90 1015.9
20260508055752 5 231 0.0 0.0 0.00 0.00 0.00 90 1015.9
20260508055251 5 231 0.0 0.0 0.00 0.00 0.00 90 1015.9
20260508054753 5 231 0.0 0.0 0.00 0.00 0.00 90 1016.0
20260508054251 5 231 0.0 0.0 0.00 0.00 0.00 90 1016.0
20260508053753 5 231 0.0 0.0 0.00 0.00 0.00 90 1016.0
20260508053250 5 231 0.0 0.0 0.00 0.00 0.00 90 1016.0
20260508052750 5 231 0.0 0.0 0.00 0.00 0.00 90 1016.0
20260508052249 5 231 0.0 0.0 0.00 0.00 0.00 90 1016.0
20260508051750 5 230 0.0 0.0 0.00 0.00 0.00 90 1016.1
20260508051250 6 230 0.0 0.0 0.00 0.00 0.00 89 1016.2
20260508050749 6 230 0.0 0.0 0.00 0.00 0.00 89 1016.2
20260508050248 6 230 0.0 0.0 0.00 0.00 0.00 89 1016.2
20260508045748 6 230 0.0 0.0 0.00 0.00 0.00 88 1016.2
20260508045249 6 242 0.0 0.0 0.00 0.00 0.00 87 1016.3
20260508044749 6 331 0.0 0.0 0.00 0.00 0.00 87 1016.3
20260508044248 6 350 0.0 0.0 0.00 0.00 0.00 87 1016.1
20260508043748 6 350 0.0 0.0 0.00 0.00 0.00 86 1016.0
20260508043247 6 350 0.0 0.0 0.00 0.00 0.00 86 1015.9
20260508042748 6 350 0.0 0.0 0.00 0.00 0.00 86 1015.8
20260508042253 6 350 0.0 0.0 0.00 0.00 0.00 86 1015.7
20260508042247 6 350 0.0 0.0 0.00 0.00 0.00 86 1015.8
20260508041253 6 350 0.0 0.0 0.00 0.00 0.00 86 1015.7
20260508041248 6 350 0.0 0.0 0.00 0.00 0.00 86 1015.7
20260508040253 7 350 0.0 0.0 0.00 0.00 0.00 85 1015.6
20260508040247 6 350 0.0 0.0 0.00 0.00 0.00 85 1015.7
20260508035248 7 350 0.0 0.0 0.00 0.00 0.00 85 1015.6
20260508034747 7 350 0.0 0.0 0.00 0.00 0.00 84 1015.5
20260508034248 7 350 0.0 0.0 0.00 0.00 0.00 83 1015.5
20260508033752 7 350 0.0 0.0 0.00 0.00 0.00 83 1015.7
20260508033747 7 350 0.0 0.0 0.00 0.00 0.00 83 1015.6
20260508032754 8 350 0.0 0.0 0.00 0.00 0.00 81 1015.8
20260508032747 7 350 0.0 0.0 0.00 0.00 0.00 82 1015.7
20260508032359 7 350 0.0 0.0 0.00 0.00 0.00 82 1015.7
20260508032247 7 350 0.0 0.0 0.00 0.00 0.00 82 1015.7
20260508030746 8 350 0.0 0.0 0.00 0.00 0.00 81 1015.8
20260508030246 8 350 0.0 0.0 0.00 0.00 0.00 80 1015.7
20260508025747 8 350 0.0 0.0 0.00 0.00 0.00 79 1015.6
20260508025245 8 350 0.0 0.0 0.00 0.00 0.00 78 1015.6
20260508024749 8 350 0.0 0.0 0.00 0.00 0.00 77 1015.6
20260508024745 8 350 0.0 0.0 0.00 0.00 0.00 78 1015.6
20260508023745 9 350 0.0 0.0 0.00 0.00 0.00 77 1015.4
20260508023245 9 350 0.0 0.0 0.00 0.00 0.00 75 1015.4
20260508022745 9 350 0.0 0.0 0.00 0.00 0.00 74 1015.3